Regional Weather Roundup
Issued by NWS

Home | Current Version | Previous Version | Graphics & Text | Print | Product List | Glossary On
Versions: 1 2 3 4 5 6 7 8 9 10 11 12 13 14 15 16 17 18 19 20 21 22 23 24 25 26 27 28 29 30 31 32 33 34 35 36 37 38 39 40 41 42 43 44 45 46 47 48 49 50
000
ASUS43 KIND 280809
RWRIN

WEATHER ROUNDUP FOR INDIANA
NATIONAL WEATHER SERVICE INDIANAPOLIS IN
400 AM EDT THU JUL 28 2016

NOTE: "FAIR" INDICATES FEW OR NO CLOUDS BELOW 12,000 FEET WITH NO
SIGNIFICANT WEATHER AND/OR OBSTRUCTIONS TO VISIBILITY.

* - STATION DOES NOT REPORT WEATHER SUCH AS PRECIPITATION OR FOG.

+ - STATION NOT QUALITY CONTROLLED BY THE NATIONAL WEATHER SERVICE.
    USE DATA WITH CAUTION...ESPECIALLY DEWPOINT AND RELATIVE
    HUMIDITY OBSERVATIONS.

INZ001>003-010>013-019-020-280900-
NORTHWEST INDIANA

CITY           SKY/WX    TMP DP  RH WIND       PRES   REMARKS
GARY /AIRPORT/ CLEAR     68  68 100 CALM      29.91F FOG
KNOX *+        PTCLDY    66  64  94 CALM      29.92S
LA PORTE +     PTCLDY    69  69 100 CALM      29.93S
MICHIGAN CITY+ CLEAR     64  64 100 CALM      29.92F
MONTICELLO +   CLOUDY    67  63  87 CALM      29.90F
RENSSELAER +   CLOUDY    66  66 100 CALM      29.91F FOG
VALPARAISO     CLEAR     67  65  93 CALM      29.92F

$$

LMZ046-743>745-280900-
SOUTHERN LAKE MICHIGAN

STATION/POSITION TIME  TEMP    WIND        PRES    WAVE
                       AIR SEA DIR/SP/G            HT
                 (UTC) (F)     (DEG/KT/KT) (MB)    (FT)
BURNS HARBOR     0700   74     180/  2/  3 1013.5F
MICHIGAN CITY    0700   74     110/  5/  6   N/A
5NW MICH CITY    0800   76 77  170/  4/  4   N/A     0

$$

INZ004-005-014>016-021>024-280900-
NORTH CENTRAL INDIANA

CITY           SKY/WX    TMP DP  RH WIND       PRES   REMARKS
GOSHEN         CLEAR     68  62  81 CALM      29.92F
LOGANSPORT +   MOCLDY    64  64 100 CALM      29.91F
PERU/GRISSOM   PTCLDY    68  68  99 CALM      29.90S
ROCHESTER +    PTCLDY    70  70 100 CALM      29.91F
SOUTH BEND     CLEAR     69  66  90 CALM      29.92F
WARSAW +       PTCLDY    66  66 100 CALM      29.92S

$$

INZ006>009-017-018-025>027-280900-
NORTHEAST INDIANA

CITY           SKY/WX    TMP DP  RH WIND       PRES   REMARKS
ANGOLA *+      CLEAR     64  64 100 CALM      29.92F
AUBURN +       MOCLDY    68  63  83 CALM      29.92S
FORT WAYNE     CLOUDY    69  64  84 N5        29.91F
HUNTINGTON +   MOCLDY    67  66  96 CALM      29.91S

$$

INZ028-029-035-036-043>045-051>053-280900-
WEST CENTRAL INDIANA

CITY           SKY/WX    TMP DP  RH WIND       PRES   REMARKS
CRAWFORDSVL +  CLOUDY    67  67 100 CALM      29.91S
GREENCASTLE +  CLOUDY    72  72 100 CALM      29.91F
LAFAYETTE      PTCLDY    68  67  96 CALM      29.89F
TERRE HAUTE    CLOUDY    74  71  91 CALM      29.90F

$$

INZ030>032-037>040-046>048-054>057-064-065-280900-
CENTRAL INDIANA

CITY           SKY/WX    TMP DP  RH WIND       PRES   REMARKS
INDIANAPOLIS   CLOUDY    77  66  68 NE6       29.91F
-EAGLE CREEK   MOCLDY    77  66  68 E3        29.90F
KOKOMO *+      MOCLDY    66  61  82 CALM      29.91S
MARION +       CLOUDY    67  65  95 CALM      29.91F FOG
MT COMFORT *+  CLOUDY    72  68  88 CALM      29.92F
SHELBYVILLE    CLOUDY    75  69  81 CALM      29.90F
ZIONSVILLE +   CLOUDY    68  67  96 S5        29.91F

$$

INZ033-034-041-042-049-050-058-059-280900-
EAST CENTRAL INDIANA

CITY           SKY/WX    TMP DP  RH WIND       PRES   REMARKS
MUNCIE         CLOUDY    73  68  84 CALM      29.91F

$$

INZ060-061-067>069-081>083-085>088-280900-
SOUTHWEST INDIANA

CITY           SKY/WX    TMP DP  RH WIND       PRES   REMARKS
EVANSVILLE     CLOUDY    74  71  91 W3        29.91F
HUNTINGBURG *+ CLOUDY    73  70  88 SW5       29.91F
WASHINGTON +   CLOUDY    74  74 100 MISG      29.90F

$$

INZ062-063-066-070>080-084-089>092-280900-
SOUTH CENTRAL AND SOUTHEAST INDIANA

CITY           SKY/WX    TMP DP  RH WIND       PRES   REMARKS
BLOOMINGTON    TSTM      73  70  90 CALM      29.92F VSB 1/2
MADISON *+     MOCLDY    73  72  94 CALM      29.93F
NORTH VERNON + CLOUDY   N/A N/A N/A SW7       29.92F
SEYMOUR +      CLOUDY    77  75  94 N8        29.91F

$$





USA.gov is the U.S. government's official web portal to all federal, state and local government web resources and services.